North Bend, OR

6:46 AM PST on December 04, 2016 (GMT -0800)
North Bend Municipal

Weather History for KOTH - October, 2010

Change the Weather History Date:

Sunday, October 24, 2010

  Actual Average Record
Temperature  
Mean Temperature 54 °F 52 °F  
Max Temperature 59 °F 60 °F 81 °F (1965)
Min Temperature 48 °F 45 °F 30 °F (1919)
Degree Days  
Heating Degree Days 11 13  
Month to date heating degree days 230 267  
Since 1 July heating degree days 903 875  
Cooling Degree Days 0 0  
Month to date cooling degree days 0 0  
Year to date cooling degree days 3 2  
Growing Degree Days 4 (Base 50)    
Moisture  
Dew Point 51 °F    
Average Humidity 86    
Maximum Humidity 93    
Minimum Humidity 72    
Precipitation  
Precipitation 1.89 in 0.19 in 2.93 in (1943)
Month to date precipitation 3.31 3.17  
Year to date precipitation 46.40 41.99  
Sea Level Pressure  
Sea Level Pressure 29.61 in    
Wind  
Wind Speed 15 mph (SW)    
Max Wind Speed 33 mph    
Max Gust Speed 44 mph    
Visibility 9 miles    
Events Thunderstorm    
T = Trace of Precipitation, MM = Missing Value Source: NWS Daily Summary

Daily Weather History Graph

Daily Weather History Graph

Search for Another Location

Airport or City:

Trip Planner

Search our weather history database for the weather conditions in past years. The results will help you decide how hot, cold, wet, or windy it might be!

Date:

Astronomy

Oct. 24, 2010 Rise Set
Actual Time 7:42 AM PDT 6:19 PM PDT
Civil Twilight 7:12 AM PDT 6:48 PM PDT
Nautical Twilight 6:39 AM PDT 7:22 PM PDT
Astronomical Twilight 6:06 AM PDT 7:55 PM PDT
Moon 6:59 PM PDT (10/24) 9:35 AM PDT (10/24)
Length of Visible Light 11h 35m
Length of Day
10h 37m
Full, 97% of the Moon is Illuminated
Oct 24
Full
Oct 30
Last Quarter
Nov 5
New
Nov 13
First Quarter
Nov 21
Full

Hourly Weather History & Observations

Time (PDT) Temp. Dew Point Humidity Pressure Visibility Wind Dir Wind Speed Gust Speed Precip Events Conditions
12:15 AM 55.4 °F 53.6 °F 94% 29.51 in 10.0 mi South 17.3 mph 29.9 mph 0.01 in   Overcast
12:35 AM 59.0 °F 55.4 °F 88% 29.51 in 4.0 mi SSW 21.9 mph 41.4 mph 0.02 in   Overcast
12:55 AM 57.2 °F 55.4 °F 94% 29.54 in 10.0 mi SSW 25.3 mph 43.7 mph 0.03 in   Mostly Cloudy
1:15 AM 57.2 °F 55.4 °F 94% 29.54 in 9.0 mi SW 26.5 mph 34.5 mph N/A   Overcast
1:35 AM 57.2 °F 55.4 °F 94% 29.54 in 10.0 mi SSW 21.9 mph 29.9 mph N/A   Overcast
1:55 AM 57.2 °F 53.6 °F 88% 29.56 in 7.0 mi SW 15.0 mph 25.3 mph 0.01 in   Overcast
2:15 AM 57.2 °F 55.4 °F 94% 29.56 in 10.0 mi SSW 19.6 mph 31.1 mph 0.01 in   Overcast
2:35 AM 57.2 °F 55.4 °F 94% 29.56 in 10.0 mi SSW 20.7 mph 25.3 mph 0.01 in   Overcast
2:55 AM 57.2 °F 55.4 °F 94% 29.57 in 10.0 mi SSW 12.7 mph 26.5 mph 0.01 in   Mostly Cloudy
3:15 AM 57.2 °F 55.4 °F 94% 29.57 in 9.0 mi SSW 15.0 mph 25.3 mph N/A   Mostly Cloudy
3:35 AM 57.2 °F 55.4 °F 94% 29.56 in 10.0 mi SSW 17.3 mph 24.2 mph N/A   Mostly Cloudy
3:55 AM 57.2 °F 55.4 °F 94% 29.56 in 10.0 mi SSW 16.1 mph 26.5 mph N/A   Overcast
4:15 AM 59.0 °F 55.4 °F 88% 29.55 in 10.0 mi SSW 16.1 mph 21.9 mph N/A   Overcast
4:35 AM 59.0 °F 55.4 °F 88% 29.54 in 10.0 mi SSW 17.3 mph 25.3 mph N/A   Overcast
4:55 AM 59.0 °F 55.4 °F 88% 29.53 in 6.0 mi SSW 15.0 mph 25.3 mph 0.03 in   Overcast
5:15 AM 59.0 °F 55.4 °F 88% 29.53 in 9.0 mi SSW 19.6 mph 29.9 mph 0.05 in   Overcast
5:35 AM 55.4 °F 53.6 °F 94% 29.56 in 3.0 mi West 33.4 mph 42.6 mph 0.24 in   Overcast
5:55 AM 51.8 °F 48.2 °F 88% 29.57 in 10.0 mi WSW 12.7 mph - 0.24 in   Mostly Cloudy
6:15 AM 51.8 °F 48.2 °F 88% 29.58 in 10.0 mi SSW 8.1 mph - 0.19 in   Mostly Cloudy
6:35 AM 53.6 °F 50.0 °F 88% 29.58 in 10.0 mi SSW 9.2 mph - 0.59 in   Scattered Clouds
6:55 AM 55.4 °F 51.8 °F 88% 29.58 in 10.0 mi SSW 12.7 mph 20.7 mph 1.35 in   Partly Cloudy
7:15 AM 55.4 °F 51.8 °F 88% 29.58 in 10.0 mi SSW 16.1 mph 20.7 mph N/A   Clear
7:35 AM 55.4 °F 51.8 °F 88% 29.58 in 10.0 mi SSW 15.0 mph 24.2 mph N/A   Mostly Cloudy
7:55 AM 55.4 °F 51.8 °F 88% 29.59 in 9.0 mi SSW 16.1 mph 26.5 mph N/A   Mostly Cloudy
8:15 AM 57.2 °F 53.6 °F 88% 29.59 in 10.0 mi SSW 16.1 mph 20.7 mph N/A   Overcast
8:35 AM 57.2 °F 53.6 °F 88% 29.60 in 7.0 mi SW 12.7 mph 20.7 mph N/A   Overcast
8:55 AM 57.2 °F 51.8 °F 82% 29.60 in 4.0 mi WSW 17.3 mph 26.5 mph N/A   Mostly Cloudy
9:15 AM 53.6 °F 48.2 °F 82% 29.61 in 1.5 mi WSW 23.0 mph 39.1 mph N/A   Overcast
9:35 AM 53.6 °F 50.0 °F 88% 29.61 in 5.0 mi SW 18.4 mph 27.6 mph N/A   Overcast
9:55 AM 55.4 °F 51.8 °F 88% 29.62 in 9.0 mi SSW 11.5 mph 20.7 mph N/A   Overcast
10:15 AM 55.4 °F 51.8 °F 88% 29.62 in 5.0 mi SSW 13.8 mph 20.7 mph N/A   Mostly Cloudy
10:35 AM 55.4 °F 51.8 °F 88% 29.61 in 9.0 mi SSW 11.5 mph 23.0 mph N/A   Overcast
10:55 AM 55.4 °F 51.8 °F 88% 29.62 in 10.0 mi WSW 16.1 mph 24.2 mph N/A   Overcast
11:15 AM 55.4 °F 51.8 °F 88% 29.62 in 10.0 mi SW 19.6 mph 29.9 mph N/A   Overcast
11:35 AM 55.4 °F 51.8 °F 88% 29.65 in 10.0 mi WSW 18.4 mph 25.3 mph N/A   Overcast
11:55 AM 53.6 °F 48.2 °F 82% 29.67 in 5.0 mi West 33.4 mph 40.3 mph N/A   Overcast
12:15 PM 51.8 °F 46.4 °F 82% 29.67 in 8.0 mi West 18.4 mph 36.8 mph N/A   Overcast
12:35 PM 51.8 °F 46.4 °F 82% 29.66 in 9.0 mi WSW 9.2 mph - N/A   Overcast
12:55 PM 53.6 °F 46.4 °F 77% 29.68 in 10.0 mi SSW 8.1 mph - 0.01 in   Mostly Cloudy
1:15 PM 55.4 °F 46.4 °F 72% 29.67 in 10.0 mi SSW 16.1 mph 21.9 mph N/A   Mostly Cloudy
1:35 PM 55.4 °F 46.4 °F 72% 29.68 in 10.0 mi SSW 13.8 mph 25.3 mph 0.03 in   Mostly Cloudy
1:55 PM 55.4 °F 48.2 °F 77% 29.68 in 10.0 mi SSW 16.1 mph 23.0 mph 0.11 in   Mostly Cloudy
2:15 PM 55.4 °F 46.4 °F 72% 29.68 in 10.0 mi SW 19.6 mph 27.6 mph 0.01 in   Mostly Cloudy
2:35 PM 55.4 °F 46.4 °F 72% 29.69 in 10.0 mi SW 15.0 mph 26.5 mph 0.01 in   Mostly Cloudy
2:55 PM 55.4 °F 46.4 °F 72% 29.70 in 10.0 mi SW 10.4 mph 23.0 mph 0.01 in   Mostly Cloudy
3:15 PM 55.4 °F 44.6 °F 67% 29.70 in 10.0 mi SW 12.7 mph - 0.02 in   Overcast
3:35 PM 53.6 °F 44.6 °F 72% 29.72 in 9.0 mi WSW 18.4 mph 32.2 mph 0.02 in Thunderstorm Overcast
3:55 PM 48.2 °F 44.6 °F 87% 29.74 in 5.0 mi SW 11.5 mph 19.6 mph 0.09 in Thunderstorm Overcast
4:15 PM 50.0 °F 44.6 °F 82% 29.72 in 9.0 mi SW 16.1 mph 25.3 mph N/A   Overcast
4:35 PM 51.8 °F 46.4 °F 82% 29.73 in 9.0 mi SW 13.8 mph 28.8 mph 0.01 in   Mostly Cloudy
4:55 PM 51.8 °F 46.4 °F 82% 29.74 in 5.0 mi SW 11.5 mph - 0.01 in   Mostly Cloudy
5:15 PM 51.8 °F 46.4 °F 82% 29.73 in 10.0 mi SSW 10.4 mph 18.4 mph N/A   Mostly Cloudy
5:35 PM 53.6 °F 44.6 °F 72% 29.74 in 10.0 mi SW 13.8 mph 24.2 mph N/A   Overcast
5:55 PM 51.8 °F 44.6 °F 76% 29.74 in 7.0 mi SSW 9.2 mph 17.3 mph N/A   Mostly Cloudy
6:15 PM 51.8 °F 42.8 °F 71% 29.75 in 10.0 mi SSW 10.4 mph 16.1 mph N/A   Mostly Cloudy
6:35 PM 51.8 °F 42.8 °F 71% 29.76 in 10.0 mi SSW 10.4 mph 20.7 mph N/A   Overcast
6:55 PM 51.8 °F 44.6 °F 76% 29.77 in 9.0 mi SW 23.0 mph 29.9 mph N/A   Overcast
7:15 PM 48.2 °F 42.8 °F 82% 29.77 in 10.0 mi SSW 9.2 mph - N/A   Overcast
7:35 PM 48.2 °F 42.8 °F 82% 29.78 in 10.0 mi South 9.2 mph - 0.02 in   Overcast
7:55 PM 48.2 °F 44.6 °F 87% 29.79 in 10.0 mi South 9.2 mph - 0.02 in   Overcast
8:15 PM 48.2 °F 42.8 °F 82% 29.80 in 10.0 mi South 11.5 mph - N/A   Mostly Cloudy
8:35 PM 48.2 °F 44.6 °F 87% 29.81 in 10.0 mi South 11.5 mph - N/A   Mostly Cloudy
8:55 PM 48.2 °F 44.6 °F 87% 29.81 in 10.0 mi SSE 11.5 mph - N/A   Overcast
9:15 PM 48.2 °F 44.6 °F 87% 29.82 in 10.0 mi SSE 9.2 mph - N/A   Overcast
9:35 PM 48.2 °F 44.6 °F 87% 29.82 in 10.0 mi South 10.4 mph - N/A   Overcast
9:55 PM 48.2 °F 44.6 °F 87% 29.83 in 10.0 mi South 11.5 mph - N/A   Overcast
10:15 PM 48.2 °F 44.6 °F 87% 29.83 in 10.0 mi South 10.4 mph - N/A   Overcast
10:35 PM 48.2 °F 42.8 °F 82% 29.83 in 10.0 mi South 12.7 mph - N/A   Overcast
10:55 PM 50.0 °F 44.6 °F 82% 29.85 in 10.0 mi South 12.7 mph 19.6 mph N/A   Overcast
11:15 PM 50.0 °F 44.6 °F 82% 29.85 in 8.0 mi South 12.7 mph 19.6 mph N/A   Overcast
11:35 PM 48.2 °F 44.6 °F 87% 29.86 in 8.0 mi South 12.7 mph - N/A   Overcast
11:55 PM 50.0 °F 44.6 °F 82% 29.87 in 8.0 mi South 13.8 mph - N/A   Overcast